Wind_Speed
47 51 54 54 54 53 53 53 53 54 54 55 55 55 55 55 55 54 53 52 51 49 47 45 42 40 39 37 35 33 31 29 27 26 24 24 24 24 23 23 22 21 20 18 16 13 11 10 9 8 7 7 7 7 7 7 8 8 8 9 10 10 11 12 13 15 16 17 17
43 50 54 54 54 53 52 52 52 53 54 54 55 55 56 56 56 55 53 52 50 49 46 44 41 40 38 35 33 30 27 26 25 24 24 24 24 24 24 22 21 20 18 15 12 10 9 7 6 6 6 6 6 7 7 8 8 9 10 11 12 13 14 15 17 18 18 19 19
40 46 52 54 54 53 53 52 52 53 53 53 54 55 55 55 55 55 53 52 50 48 46 44 41 39 37 34 30 27 25 25 24 25 25 25 24 24 22 20 18 16 14 11 9 7 6 5 5 5 6 6 7 7 8 9 10 10 11 13 14 16 18 19 20 20 20 20 20
39 45 50 53 54 54 54 53 53 53 53 53 53 54 54 55 55 55 54 53 50 47 45 44 42 39 36 32 29 27 26 26 26 26 26 25 24 22 20 17 15 12 10 9 7 5 4 4 5 6 6 7 7 8 9 10 11 12 13 15 17 19 20 21 22 22 21 21 21
41 46 50 52 53 54 54 54 53 53 53 52 53 54 55 55 55 55 54 53 50 47 46 44 43 40 35 31 29 28 28 28 27 26 25 24 22 20 17 14 11 9 8 7 7 7 8 7 6 6 7 7 8 9 10 11 12 14 16 17 19 20 22 23 23 23 23 22 22
42 45 48 50 51 52 53 53 53 53 53 53 53 54 55 55 56 55 54 52 50 48 46 45 44 40 35 31 30 31 30 29 27 26 24 22 20 18 15 12 10 8 7 7 8 9 8 7 6 6 7 8 9 10 11 13 14 15 17 18 20 22 23 24 24 24 23 23 23
42 44 46 48 50 51 51 52 52 53 53 53 53 54 56 56 56 56 55 53 51 49 47 46 43 39 35 32 33 32 31 29 27 25 22 20 17 15 13 11 8 7 6 5 6 6 6 5 5 6 8 9 10 12 13 14 16 16 17 19 22 24 24 24 24 24 24 24 24
42 43 45 47 48 50 51 51 51 52 52 53 53 55 56 57 57 56 55 54 52 50 48 46 43 39 35 34 34 32 30 28 26 23 20 17 15 13 11 9 7 6 4 4 4 4 3 4 5 7 9 10 12 13 15 16 17 18 20 22 24 25 25 25 25 25 25 25 25
43 44 44 45 45 46 49 50 51 52 53 53 54 55 56 57 57 57 56 54 53 51 48 46 42 39 36 36 33 31 29 27 24 22 19 16 13 11 10 8 7 5 4 4 3 3 3 4 6 8 10 11 13 14 16 17 18 20 23 24 25 25 25 25 25 25 25 26 26
45 44 43 42 41 43 47 48 49 51 52 54 54 55 56 57 57 57 56 55 53 50 47 45 41 39 37 36 32 29 27 25 22 20 17 15 13 11 9 8 7 5 4 3 2 2 4 5 7 9 10 12 13 14 16 17 20 23 25 26 26 25 25 26 26 26 26 26 26
47 43 40 40 40 42 44 45 46 48 51 54 55 56 57 57 57 56 56 55 52 49 46 42 40 38 37 34 31 28 25 23 20 18 16 14 13 11 10 8 7 5 4 2 2 3 4 6 8 10 11 12 14 15 17 20 23 26 27 26 26 26 26 26 26 27 27 27 27
47 42 39 38 39 40 41 41 43 45 48 52 55 57 57 57 57 56 56 54 50 46 43 40 38 37 35 32 29 26 23 21 19 17 16 14 13 11 10 9 7 5 3 2 2 4 5 7 9 10 12 13 15 17 20 24 26 27 26 26 26 26 26 27 27 27 28 28 28
46 42 39 38 38 39 40 41 41 44 46 50 53 55 55 55 54 53 52 50 47 44 41 39 37 35 33 30 27 24 22 20 18 17 16 14 13 12 10 8 7 5 3 2 3 5 6 8 10 11 12 14 17 20 24 27 27 26 26 26 27 27 27 27 28 28 28 28 28
45 42 40 39 39 40 41 42 44 45 47 49 50 51 51 50 49 48 46 46 44 42 40 38 36 33 30 28 25 23 21 20 18 17 15 14 13 11 9 8 6 4 3 2 4 5 7 8 10 12 14 17 21 25 27 27 27 26 26 27 27 27 27 27 28 28 28 27 27
44 42 41 42 42 42 43 45 47 47 47 47 47 47 46 46 44 43 42 43 42 41 39 37 34 31 28 26 24 22 21 19 18 16 15 13 12 10 8 6 4 3 1 2 4 6 8 10 11 14 17 21 25 27 27 26 26 26 26 27 27 27 27 27 28 28 27 26 25
44 43 43 44 44 45 45 47 48 48 47 46 46 45 44 43 42 42 41 41 41 39 37 34 32 30 27 25 23 22 20 18 17 15 14 12 11 9 7 5 3 1 1 3 6 8 10 12 14 17 21 25 26 26 25 26 26 26 26 26 26 25 25 25 25 25 25 24 24
45 44 45 45 46 46 46 47 48 48 47 46 44 43 43 43 42 41 40 39 38 36 34 32 30 28 27 25 23 21 19 17 16 14 12 11 9 7 5 3 2 2 4 6 8 10 12 14 18 22 24 25 24 24 25 25 25 25 25 24 23 22 22 21 21 21 22 22 21
47 46 46 47 47 47 47 46 46 46 45 44 43 43 43 42 41 40 37 35 34 33 32 30 29 27 26 25 23 20 18 16 14 13 11 10 8 6 4 3 3 5 7 9 10 11 15 19 22 23 23 23 23 24 24 24 24 23 23 22 21 20 19 18 18 19 19 18 18
48 49 48 48 49 48 46 45 44 44 43 42 43 43 43 42 40 37 34 33 31 30 30 29 27 26 24 23 21 19 17 15 13 12 10 8 7 5 4 4 5 7 8 9 12 16 20 23 23 22 22 22 23 23 23 22 21 20 19 18 17 17 16 16 16 16 16 16 16
49 49 49 49 48 47 45 43 42 42 42 42 43 44 43 40 37 34 33 31 30 29 28 27 26 25 23 21 20 18 16 14 12 11 9 8 6 4 4 5 6 7 9 13 17 21 22 22 21 21 22 22 22 22 20 19 18 16 15 15 14 14 13 13 14 14 14 15 15
49 49 48 47 46 44 43 42 42 42 43 43 44 43 41 38 35 33 32 30 29 28 26 26 25 23 22 20 18 17 15 13 11 10 8 6 4 3 3 4 5 9 14 19 21 21 20 20 21 21 22 22 21 20 18 16 14 13 12 12 11 11 11 11 12 12 13 14 15
49 48 46 45 43 42 41 42 43 44 44 44 43 41 39 36 34 32 31 29 28 27 26 25 24 22 21 19 17 16 14 13 11 8 6 3 2 1 2 5 10 15 19 19 19 19 19 20 20 20 20 20 18 17 15 13 11 10 10 9 9 9 9 10 10 11 12 13 14
48 46 43 41 40 40 42 44 44 45 44 42 40 38 36 35 33 32 30 29 27 26 25 24 23 21 19 17 16 15 13 11 8 5 3 2 1 1 6 12 16 18 18 17 17 17 18 18 18 18 17 16 14 13 11 10 8 8 8 8 8 8 8 9 9 10 10 11 12
46 44 41 40 40 42 44 46 45 44 42 40 37 36 35 33 32 31 29 28 27 25 24 23 22 20 18 16 15 13 10 7 5 4 4 3 3 8 13 17 17 16 15 15 16 16 16 16 15 14 13 12 11 9 8 7 7 6 7 7 7 8 8 8 8 8 9 9 10
45 43 42 42 44 46 47 46 44 42 40 38 36 35 33 32 31 30 29 27 26 25 23 22 20 19 17 15 12 9 7 6 5 6 5 6 11 15 16 16 15 14 14 14 13 13 13 12 11 11 10 9 8 7 7 6 6 6 6 6 7 7 7 7 7 7 7 8 9
45 44 45 47 48 48 47 44 42 40 38 37 35 34 33 32 31 29 28 27 26 24 23 21 19 17 15 12 10 8 7 7 7 7 9 13 16 16 15 14 13 13 12 11 10 10 9 9 8 8 8 7 7 6 6 5 5 5 5 6 6 6 6 6 6 6 6 6 7
47 48 49 50 49 47 44 42 40 38 37 36 35 34 33 32 30 29 27 26 25 24 22 20 17 15 13 11 10 10 10 9 10 13 16 17 16 14 13 12 11 10 9 8 8 7 7 6 6 6 6 6 6 6 6 6 5 5 5 5 5 5 5 5 5 5 5 5 5
51 52 51 50 47 44 41 40 38 37 37 36 35 34 33 32 30 28 27 25 24 22 20 18 15 13 12 12 12 12 11 13 16 17 17 15 14 12 10 9 8 7 7 6 6 5 5 5 5 5 6 6 6 6 6 6 5 5 4 4 4 4 5 5 5 5 5 6 5
53 52 50 47 43 41 39 38 37 36 36 35 34 33 32 31 29 28 26 24 23 21 19 17 16 15 15 14 14 14 16 18 18 16 15 13 11 9 7 6 6 5 5 4 4 3 3 4 5 5 6 6 6 6 6 5 5 4 4 3 3 3 4 4 5 6 7 7 7
51 49 46 43 41 39 38 36 36 35 34 34 33 32 31 30 28 26 25 23 22 20 19 18 17 17 16 15 17 19 19 18 16 14 12 10 8 6 5 4 3 3 2 2 2 2 3 4 5 6 6 6 6 6 5 5 4 3 3 2 2 2 3 4 5 6 7 7 7
47 46 43 42 40 38 37 35 34 34 34 33 32 31 30 29 27 25 24 22 21 20 19 19 18 17 18 19 20 20 18 16 14 12 10 8 6 5 3 2 1 1 1 1 2 2 3 5 6 6 6 6 6 5 5 4 3 2 2 2 2 2 2 3 3 5 6 6 6
44 43 41 40 38 37 35 34 34 33 33 32 31 30 29 28 26 25 23 22 21 21 20 19 19 20 21 21 20 19 16 14 12 10 9 7 6 4 3 3 2 1 0 0 1 2 4 5 6 6 6 6 5 4 3 2 1 1 1 1 1 1 1 1 2 2 3 3 3
42 40 39 37 36 35 34 33 33 32 32 31 30 29 28 27 26 25 24 23 21 21 20 21 22 22 22 20 19 17 15 13 11 10 9 8 7 6 5 5 4 2 1 0 1 2 3 4 5 5 5 5 4 3 2 2 1 0 1 1 1 1 2 2 2 2 2 2 2
40 38 37 36 34 33 33 32 32 32 31 31 30 29 28 27 26 25 24 23 22 22 23 23 23 22 21 19 17 16 14 13 12 11 10 10 9 8 7 6 5 3 2 2 1 2 3 4 4 4 4 4 4 3 3 2 2 2 2 3 3 3 4 4 4 3 3 3 2
37 36 35 34 33 33 32 31 31 31 31 30 30 29 28 27 26 26 25 25 25 26 25 24 23 22 20 18 17 15 15 14 13 13 12 12 11 9 8 7 5 4 4 3 3 3 3 3 3 4 4 4 4 4 3 3 4 4 4 5 5 6 6 5 5 5 4 4 3
36 35 35 35 34 33 32 31 31 31 30 30 30 29 28 28 27 27 28 28 28 27 26 24 22 21 20 18 17 16 16 15 14 14 14 13 12 10 8 7 6 6 5 5 5 4 4 3 3 4 4 5 5 5 5 5 6 6 7 7 9 9 8 7 6 5 5 4 4
35 35 36 36 35 34 33 32 31 31 30 30 30 30 30 30 30 30 29 29 28 27 25 23 22 21 20 19 18 17 17 16 15 15 14 13 12 10 9 8 7 7 7 7 6 6 5 5 5 5 5 5 6 6 7 7 8 8 9 10 11 11 9 7 6 5 4 3 3
36 36 36 36 35 34 32 31 31 31 30 31 31 31 31 31 31 30 29 28 27 26 25 23 22 21 20 19 18 18 18 17 16 15 14 13 12 10 9 9 8 8 8 8 8 7 7 7 6 6 6 7 7 8 8 9 10 10 10 10 10 10 8 6 4 3 3 2 3
35 34 34 33 33 32 31 31 31 31 31 32 32 32 31 31 30 29 28 27 26 26 25 24 23 21 20 20 19 19 18 17 16 15 14 13 12 11 10 10 9 9 10 9 9 9 8 8 8 8 7 8 8 9 9 10 10 10 9 8 7 7 6 4 3 2 2 3 4
33 32 31 30 30 30 30 31 31 32 32 32 32 31 31 30 29 29 27 26 26 25 25 24 23 22 21 20 20 19 19 18 17 15 14 14 13 12 11 10 10 11 11 10 10 10 9 9 9 9 8 8 9 9 9 9 9 8 8 7 6 5 4 3 2 1 2 3 3
31 29 28 28 29 29 31 32 32 32 32 32 32 31 30 30 29 28 27 27 26 25 25 24 24 23 22 21 20 20 19 18 17 16 15 14 14 13 12 12 11 12 12 11 11 11 11 10 10 9 9 8 8 8 7 7 7 7 7 6 5 5 4 3 2 1 1 1 2
Wind_Direction
183 187 190 190 189 188 187 187 187 186 186 186 184 184 183 182 181 180 179 179 178 177 177 176 176 177 178 179 180 180 179 179 178 176 174 171 168 166 164 162 160 161 163 166 168 169 171 173 177 184 193 203 212 222 231 240 249 258 265 269 272 277 285 291 293 293 291 288 286
186 190 193 192 192 191 191 190 189 187 185 186 186 185 184 184 182 181 179 178 178 177 176 176 176 177 177 176 177 178 178 176 174 171 167 164 162 161 160 159 161 163 166 168 169 169 169 174 183 194 206 217 229 240 249 256 263 269 274 278 283 290 297 298 296 293 290 287 284
187 189 192 193 193 193 192 191 190 188 186 185 185 184 184 183 183 181 179 178 178 177 176 176 176 176 176 176 177 178 178 174 169 165 162 160 159 159 159 160 163 165 168 168 167 167 171 183 201 214 224 235 246 255 262 267 273 277 281 286 293 298 299 296 293 289 287 285 283
189 189 190 193 194 195 194 193 192 190 189 188 185 183 182 181 182 181 180 179 178 177 176 177 177 178 179 180 179 177 174 169 165 163 161 160 159 159 160 162 165 168 170 172 176 189 219 238 235 234 238 247 256 264 269 274 279 283 286 291 294 295 293 291 288 287 285 284 282
190 190 192 194 195 196 196 195 194 192 190 188 185 182 180 180 180 180 180 178 177 176 177 178 178 180 181 181 179 175 169 165 164 163 163 161 161 161 163 166 169 173 181 197 224 249 260 258 251 247 251 257 264 268 273 277 281 284 287 290 291 289 288 287 286 285 284 282 281
190 189 189 190 191 192 194 194 194 192 190 188 185 182 180 180 180 180 179 178 177 177 177 179 179 179 179 178 175 170 166 165 165 164 163 162 162 163 166 171 177 187 203 227 248 256 258 256 258 260 264 268 271 274 276 279 282 285 288 289 288 286 285 285 284 283 283 282 281
188 188 188 189 190 190 189 191 192 191 189 186 184 182 181 181 180 180 180 179 177 177 178 179 179 178 177 174 170 167 165 165 164 164 163 162 162 163 166 172 182 194 210 227 238 243 247 257 266 271 274 276 278 280 282 284 286 289 291 289 286 284 284 284 283 282 282 281 279
188 190 191 190 189 189 189 189 188 187 186 185 184 183 182 182 181 180 179 178 177 177 178 179 179 178 176 172 168 166 164 163 162 162 162 162 162 162 164 167 169 173 184 202 216 229 245 264 274 278 280 282 283 286 288 291 294 295 292 288 285 283 283 283 282 281 281 280 279
189 191 192 191 189 188 188 187 186 185 184 183 183 183 182 181 181 180 178 177 177 177 178 178 178 178 176 172 167 164 162 160 160 160 160 161 160 160 159 159 158 161 169 183 202 230 258 271 276 278 279 282 285 289 293 296 297 293 288 284 283 282 282 282 281 280 280 279 278
191 193 194 193 191 190 188 185 185 184 183 181 181 181 181 180 180 180 180 179 178 177 177 177 177 175 173 169 164 160 159 159 158 158 158 158 157 156 155 155 155 155 161 176 207 244 264 272 275 276 279 283 288 294 297 296 290 285 282 281 281 281 281 280 280 279 279 278 278
191 195 197 195 194 192 189 185 184 184 182 180 179 179 179 179 180 181 182 181 178 176 175 175 173 170 167 163 159 157 157 157 157 156 155 154 153 153 152 151 150 150 157 180 223 254 266 273 276 279 283 289 295 298 295 288 281 278 278 279 279 279 279 279 279 278 277 277 276
189 193 197 195 191 191 191 187 185 184 182 179 177 177 178 178 179 180 181 179 176 173 171 169 167 164 160 157 156 156 155 155 154 153 152 151 150 149 147 146 146 149 160 194 235 258 269 275 280 286 292 298 299 293 285 278 275 276 277 278 278 278 278 278 278 277 276 275 274
185 189 193 193 189 187 186 184 181 181 181 179 176 176 177 177 180 181 179 175 171 166 162 160 159 157 155 154 154 154 153 152 150 149 148 148 147 145 144 143 145 151 168 207 245 265 275 282 288 296 301 300 292 282 275 273 274 276 277 278 278 278 278 278 277 275 274 274 273
182 183 186 186 185 183 179 178 177 177 176 176 174 176 177 177 179 179 174 167 162 157 154 153 153 153 153 153 152 150 149 147 146 146 146 145 143 141 140 141 145 155 180 227 259 274 285 294 302 305 300 289 279 273 272 273 275 277 278 278 278 278 278 277 276 274 273 272 272
178 180 181 181 182 180 178 175 174 174 173 174 172 173 174 172 171 168 163 157 153 151 150 150 150 150 150 149 148 146 145 143 143 142 142 141 139 136 135 136 140 154 204 264 284 294 304 310 309 299 286 275 270 270 272 275 277 278 279 279 278 278 277 276 275 273 271 269 269
175 177 179 181 181 179 176 174 173 172 172 172 171 169 166 163 160 157 154 152 150 149 149 148 148 147 146 145 143 142 141 140 139 139 137 134 131 129 127 125 126 133 303 311 314 316 314 307 295 280 271 268 269 272 275 277 278 279 279 278 278 277 276 275 274 272 270 269 269
172 174 177 179 179 176 174 173 172 170 170 170 168 165 161 157 155 153 152 151 149 148 147 146 146 145 143 140 139 138 137 136 136 134 130 125 121 117 113 105 73 6 340 330 324 315 302 287 273 267 266 269 272 276 278 279 279 278 277 275 274 274 275 275 275 275 274 274 275
172 173 175 177 176 174 173 173 171 169 168 168 164 160 159 157 154 152 151 150 148 147 145 143 143 141 139 137 135 134 132 131 129 126 121 115 110 104 92 65 18 347 332 321 310 293 276 266 263 265 268 272 275 278 279 279 277 275 273 271 272 273 275 277 277 278 278 279 280
170 171 172 174 173 173 172 171 170 168 166 165 161 159 158 157 153 150 148 146 145 144 143 141 138 136 134 132 130 129 127 125 122 117 111 105 98 84 59 19 342 323 311 298 279 266 261 260 263 267 271 274 276 277 277 275 273 271 270 270 272 274 276 278 278 278 279 278 276
169 170 171 172 171 170 169 168 166 164 162 160 159 158 156 153 150 147 144 142 141 140 139 136 133 130 128 127 126 124 123 120 115 109 102 95 83 59 15 335 315 300 281 265 258 257 259 263 267 270 272 272 272 272 271 270 268 268 268 270 272 275 276 278 278 278 277 274 271
166 167 168 168 167 166 165 163 161 159 158 157 157 155 151 147 145 143 140 138 137 136 134 131 129 127 125 124 122 120 118 114 108 102 95 85 66 22 337 311 285 264 254 252 254 258 263 267 269 269 269 269 269 268 268 267 267 268 269 271 274 277 279 281 281 279 276 272 269
162 163 163 163 163 162 160 159 158 157 156 155 154 150 146 143 141 139 137 135 134 132 129 127 125 124 123 121 119 116 113 110 106 101 94 84 50 356 295 260 249 247 249 252 258 262 266 267 267 267 267 268 268 269 270 271 272 274 276 279 281 283 285 285 284 281 277 274 270
160 160 160 160 161 159 158 157 157 157 156 153 149 145 143 141 139 137 135 133 132 129 127 125 123 121 120 118 115 112 111 112 113 114 111 103 102 216 237 240 243 246 251 256 260 263 264 265 265 266 267 269 270 272 274 276 278 281 285 287 288 288 287 286 284 281 279 275 270
159 159 160 160 160 159 158 158 158 157 155 150 146 143 141 140 138 136 134 132 130 127 125 123 121 119 117 116 114 114 118 126 131 126 117 124 189 224 234 239 243 248 253 256 259 261 262 263 264 266 268 269 269 271 273 276 281 285 287 289 288 287 284 282 280 278 276 272 268
160 160 160 160 159 159 159 159 158 155 152 147 144 142 140 138 136 134 132 130 128 125 123 121 119 118 118 118 121 127 136 138 128 123 139 188 217 227 233 238 242 246 249 253 257 259 261 262 262 262 263 264 264 266 269 273 278 281 282 281 281 280 278 275 273 271 270 268 265
161 160 159 159 159 159 159 157 154 151 147 144 142 140 139 137 134 132 130 128 126 123 121 120 119 120 123 127 133 137 134 128 131 157 194 214 222 226 230 233 237 241 245 250 254 256 258 259 258 258 259 259 260 262 265 268 271 272 272 271 269 267 266 264 262 259 258 259 258
159 158 158 158 158 157 155 152 149 145 142 141 139 138 136 134 132 131 129 127 125 123 122 122 124 127 131 134 134 130 130 143 172 197 211 217 220 223 227 231 235 240 246 250 254 256 257 256 256 256 258 259 260 261 261 263 264 262 261 260 255 251 246 243 240 238 234 232 232
157 156 157 157 155 151 147 145 142 140 138 137 136 134 133 131 129 128 127 126 125 125 126 128 130 133 133 131 130 138 159 184 200 207 210 212 215 219 224 231 235 240 245 251 255 257 257 255 253 255 257 257 258 259 259 258 259 257 255 252 249 243 237 230 225 219 211 203 197
154 154 153 151 147 143 140 138 137 136 135 134 132 130 129 127 127 126 126 126 126 127 129 129 130 129 129 134 148 171 190 200 202 202 202 204 207 211 217 224 229 237 245 253 257 256 253 249 248 249 251 252 252 252 253 253 254 254 255 255 253 247 236 228 223 218 213 205 197
150 149 147 143 139 137 136 135 135 134 132 130 128 127 125 125 125 125 126 126 126 126 127 127 128 132 143 160 179 191 196 196 193 190 189 189 191 195 203 211 218 232 249 261 261 252 245 240 241 242 242 242 241 242 243 246 249 253 261 269 272 264 252 239 231 228 223 220 214
143 141 139 136 135 134 134 135 134 132 130 128 126 125 125 125 125 125 126 126 126 126 127 130 139 153 170 183 190 191 189 185 181 177 174 173 175 177 179 178 177 198 261 275 260 244 236 234 235 235 233 231 231 231 234 238 244 260 281 296 301 293 274 257 246 242 241 239 237
137 136 135 134 135 135 135 134 133 131 129 127 127 126 126 126 126 126 126 126 128 131 137 148 164 177 184 186 185 182 177 172 167 163 160 157 153 145 132 118 109 104 99 276 246 235 228 226 227 226 225 222 220 221 224 227 238 277 315 323 323 313 279 237 232 239 245 252 256
134 135 136 136 136 136 135 133 131 130 129 128 128 128 128 128 128 128 129 131 136 145 158 171 180 183 182 178 173 168 163 158 153 148 143 136 127 116 108 104 104 104 105 147 210 215 214 214 216 216 215 213 211 209 207 200 179 135 107 115 124 130 136 143 150 166 185 209 231
135 137 138 139 138 136 134 132 131 131 130 129 129 129 130 130 132 134 138 144 153 163 172 178 179 176 171 166 161 155 150 146 140 134 127 120 113 108 106 106 106 105 108 120 148 177 191 198 202 204 203 200 197 193 183 165 150 140 135 134 134 134 135 139 147 162 179 194 206
139 141 141 140 137 135 133 132 132 132 131 131 131 132 133 135 139 144 151 159 167 171 173 172 169 165 159 153 147 143 139 136 130 124 118 113 109 107 107 107 106 104 104 106 114 129 147 166 176 182 184 183 181 176 166 153 146 142 140 138 134 133 137 147 163 180 194 200 204
144 144 143 139 136 134 133 133 133 133 133 133 135 137 141 146 151 156 162 167 169 167 164 161 157 152 147 142 138 134 130 126 123 118 113 109 107 106 106 106 104 101 98 96 97 102 112 126 141 153 161 165 166 163 157 151 146 144 143 142 140 143 150 165 181 196 204 207 210
145 145 142 138 136 135 135 136 136 137 138 140 144 148 153 157 159 161 163 164 161 157 154 151 147 144 141 138 134 129 123 118 115 112 110 108 107 106 105 103 100 96 91 87 86 89 95 105 117 129 141 149 153 152 150 149 148 148 149 151 153 159 168 181 194 205 212 220 233
143 142 140 138 137 138 140 142 143 145 147 151 154 156 158 159 157 156 155 154 152 149 147 144 142 139 137 134 129 123 118 114 111 109 109 109 108 106 103 99 95 90 86 83 82 84 90 97 106 115 127 137 143 146 147 149 152 155 159 163 167 172 178 188 200 215 234 262 293
140 139 139 139 141 144 147 149 151 153 155 157 156 155 153 152 149 148 147 147 146 145 143 141 139 136 133 128 124 119 115 113 111 110 110 109 107 104 100 96 92 87 84 82 82 85 90 96 101 108 119 130 137 143 148 153 157 162 165 168 171 174 180 188 202 233 282 311 319
139 139 139 141 144 148 151 154 155 156 156 155 151 148 146 145 144 143 143 143 143 142 140 138 135 131 128 123 121 118 116 114 113 112 111 108 105 101 97 93 90 87 85 84 85 89 93 97 102 108 117 127 135 143 150 157 160 161 159 158 159 166 176 189 210 255 303 320 324
140 141 143 146 148 151 154 155 155 154 152 149 145 143 142 142 142 142 142 143 142 141 138 135 131 127 124 122 120 119 118 115 113 111 108 106 103 99 95 92 89 89 89 89 91 93 97 100 104 108 115 123 130 137 142 147 150 149 147 148 153 162 173 185 200 220 290 346 352
Height
1388 1386 1386 1388 1390 1393 1395 1398 1401 1403 1406 1408 1411 1414 1418 1421 1424 1428 1431 1434 1437 1440 1444 1447 1450 1453 1456 1458 1461 1463 1465 1467 1468 1469 1470 1471 1472 1473 1474 1475 1476 1477 1478 1480 1481 1482 1482 1483 1483 1483 1484 1484 1485 1485 1485 1486 1486 1486 1486 1487 1487 1487 1487 1487 1487 1487 1488 1488 1489
1391 1388 1386 1387 1389 1392 1395 1398 1401 1403 1405 1408 1410 1413 1416 1420 1423 1427 1431 1434 1437 1440 1443 1447 1450 1453 1455 1458 1461 1463 1466 1467 1468 1469 1470 1471 1471 1472 1473 1474 1476 1477 1478 1479 1480 1480 1481 1481 1482 1482 1483 1483 1483 1483 1484 1484 1484 1485 1485 1485 1485 1485 1484 1485 1485 1486 1487 1488 1488
1394 1389 1386 1386 1388 1391 1393 1396 1399 1402 1405 1408 1410 1413 1416 1419 1423 1426 1430 1434 1437 1440 1443 1446 1449 1453 1455 1458 1461 1463 1466 1467 1468 1468 1469 1470 1471 1472 1473 1474 1475 1476 1477 1478 1478 1479 1479 1480 1480 1481 1481 1481 1482 1482 1483 1483 1483 1483 1483 1483 1483 1482 1483 1483 1485 1485 1486 1486 1486
1396 1391 1387 1386 1387 1389 1391 1394 1397 1400 1403 1407 1410 1413 1416 1419 1422 1426 1429 1433 1436 1439 1442 1445 1448 1452 1455 1458 1460 1462 1464 1466 1467 1467 1468 1469 1470 1471 1472 1473 1474 1475 1476 1476 1477 1477 1478 1479 1480 1480 1480 1480 1481 1481 1481 1481 1482 1482 1482 1482 1481 1481 1482 1483 1484 1484 1485 1485 1485
1396 1393 1389 1387 1388 1389 1391 1393 1395 1398 1402 1405 1408 1412 1415 1418 1421 1425 1428 1432 1435 1438 1441 1444 1447 1450 1454 1457 1459 1461 1463 1464 1465 1466 1467 1468 1469 1470 1471 1473 1473 1474 1475 1475 1475 1476 1478 1478 1479 1479 1479 1479 1479 1480 1480 1481 1481 1481 1481 1479 1479 1480 1482 1483 1483 1483 1483 1483 1483
1395 1393 1391 1389 1389 1390 1391 1392 1394 1397 1400 1403 1407 1410 1413 1417 1420 1423 1427 1430 1433 1437 1439 1442 1445 1449 1453 1456 1458 1459 1461 1462 1463 1465 1466 1467 1468 1469 1470 1471 1473 1473 1474 1474 1475 1476 1477 1477 1478 1478 1478 1478 1478 1479 1480 1480 1480 1480 1478 1477 1478 1480 1481 1482 1482 1482 1482 1481 1481
1396 1394 1393 1392 1390 1390 1391 1393 1394 1396 1399 1402 1405 1408 1411 1414 1418 1421 1425 1428 1432 1434 1438 1440 1444 1447 1451 1453 1456 1457 1459 1460 1462 1463 1465 1466 1467 1467 1468 1470 1471 1472 1473 1474 1474 1475 1475 1476 1476 1477 1477 1478 1478 1479 1479 1479 1479 1477 1476 1477 1478 1480 1480 1480 1480 1480 1480 1480 1479
1396 1395 1394 1393 1392 1391 1392 1393 1394 1396 1398 1401 1404 1407 1410 1413 1416 1420 1423 1426 1429 1432 1435 1438 1442 1445 1448 1451 1453 1455 1457 1459 1460 1462 1463 1465 1466 1466 1467 1469 1470 1471 1472 1473 1473 1474 1474 1475 1475 1476 1477 1477 1478 1478 1478 1477 1476 1475 1476 1477 1478 1479 1479 1479 1479 1478 1478 1478 1478
1395 1394 1394 1395 1395 1394 1393 1393 1394 1395 1398 1400 1403 1406 1408 1411 1414 1418 1421 1424 1427 1429 1433 1437 1440 1443 1446 1449 1451 1453 1456 1457 1459 1460 1462 1463 1464 1465 1467 1468 1469 1470 1471 1472 1473 1473 1473 1474 1475 1475 1476 1476 1476 1476 1475 1474 1474 1475 1477 1478 1478 1478 1478 1478 1477 1477 1477 1476 1476
1393 1393 1395 1397 1398 1398 1397 1396 1395 1396 1397 1399 1402 1405 1408 1410 1413 1416 1419 1422 1424 1427 1431 1434 1438 1441 1444 1447 1450 1452 1454 1456 1458 1459 1461 1462 1463 1464 1465 1467 1468 1469 1470 1471 1472 1472 1473 1473 1474 1474 1474 1475 1474 1474 1473 1473 1475 1476 1478 1478 1477 1477 1477 1476 1476 1475 1475 1474 1474
1389 1393 1395 1398 1399 1400 1400 1399 1399 1398 1398 1399 1401 1404 1407 1410 1412 1415 1417 1420 1422 1426 1429 1433 1436 1439 1442 1445 1448 1451 1453 1455 1456 1458 1459 1460 1462 1463 1464 1466 1467 1468 1469 1470 1471 1471 1472 1472 1473 1473 1473 1473 1472 1471 1472 1474 1476 1476 1476 1476 1476 1475 1475 1475 1474 1474 1473 1473 1472
1386 1391 1395 1398 1400 1401 1402 1402 1403 1403 1402 1400 1400 1403 1406 1408 1410 1413 1415 1418 1421 1425 1429 1433 1436 1438 1441 1444 1447 1450 1452 1453 1455 1457 1458 1459 1460 1462 1463 1465 1466 1467 1468 1468 1469 1470 1471 1471 1471 1471 1470 1469 1469 1471 1473 1475 1475 1475 1474 1474 1473 1473 1473 1473 1473 1472 1471 1471 1470
1383 1388 1393 1398 1400 1402 1403 1404 1406 1407 1406 1404 1402 1403 1405 1407 1409 1412 1414 1417 1420 1424 1428 1433 1436 1438 1441 1443 1446 1448 1450 1452 1454 1455 1457 1458 1459 1461 1462 1463 1465 1466 1467 1467 1468 1468 1469 1469 1469 1468 1468 1468 1470 1472 1473 1473 1473 1473 1472 1472 1471 1471 1471 1471 1470 1470 1469 1468 1468
1382 1386 1391 1396 1399 1401 1403 1404 1406 1408 1408 1407 1406 1405 1406 1409 1411 1414 1417 1419 1421 1424 1428 1432 1435 1438 1441 1443 1445 1447 1449 1451 1453 1454 1455 1457 1458 1459 1461 1462 1463 1464 1465 1466 1466 1467 1467 1467 1466 1466 1467 1469 1471 1472 1472 1472 1471 1471 1470 1470 1469 1469 1469 1468 1468 1467 1467 1466 1466
1381 1385 1389 1393 1397 1400 1402 1403 1405 1406 1408 1409 1409 1409 1410 1412 1415 1418 1420 1421 1423 1425 1428 1431 1434 1437 1440 1442 1444 1446 1448 1450 1452 1453 1454 1455 1457 1458 1459 1461 1462 1463 1463 1464 1464 1465 1464 1463 1464 1466 1469 1471 1471 1471 1470 1470 1469 1469 1468 1468 1468 1467 1467 1466 1466 1465 1465 1464 1464
1381 1383 1387 1391 1394 1398 1401 1403 1404 1406 1408 1410 1411 1412 1413 1415 1418 1421 1423 1424 1425 1426 1428 1431 1433 1436 1439 1441 1443 1445 1447 1449 1451 1452 1453 1454 1456 1457 1458 1459 1460 1461 1462 1462 1462 1462 1462 1463 1466 1468 1470 1470 1469 1469 1468 1468 1467 1467 1466 1466 1466 1465 1465 1464 1464 1463 1463 1462 1462
1380 1383 1386 1389 1393 1397 1400 1403 1404 1405 1408 1410 1412 1413 1415 1418 1421 1423 1425 1426 1426 1427 1429 1431 1433 1436 1438 1440 1442 1444 1446 1448 1450 1451 1452 1453 1454 1456 1457 1458 1458 1459 1459 1459 1459 1460 1463 1465 1468 1468 1468 1468 1467 1467 1466 1466 1465 1465 1464 1464 1464 1463 1463 1463 1462 1462 1461 1460 1460
1379 1382 1385 1389 1393 1397 1401 1403 1405 1406 1408 1410 1412 1415 1418 1421 1423 1425 1426 1427 1428 1428 1429 1431 1433 1435 1437 1439 1442 1444 1446 1448 1449 1450 1451 1452 1453 1454 1455 1456 1456 1456 1456 1458 1460 1463 1465 1466 1467 1466 1466 1465 1465 1465 1464 1464 1463 1463 1463 1462 1462 1461 1461 1460 1460 1459 1459 1458 1458
1378 1381 1385 1389 1393 1397 1401 1404 1406 1408 1409 1411 1413 1416 1419 1423 1424 1425 1427 1427 1428 1429 1430 1431 1433 1435 1437 1439 1441 1443 1445 1447 1448 1449 1450 1451 1452 1453 1453 1453 1453 1454 1457 1459 1463 1464 1465 1465 1464 1464 1463 1463 1463 1463 1463 1462 1462 1462 1461 1461 1460 1459 1459 1458 1458 1458 1457 1456 1456
1378 1381 1385 1389 1393 1397 1401 1405 1408 1409 1411 1413 1415 1417 1420 1423 1424 1425 1426 1427 1428 1429 1430 1431 1433 1435 1437 1438 1440 1442 1443 1445 1447 1448 1449 1450 1450 1450 1450 1451 1453 1456 1459 1462 1463 1463 1463 1463 1462 1462 1462 1462 1461 1461 1461 1461 1460 1460 1459 1459 1458 1458 1457 1457 1456 1455 1455 1455 1454
1378 1382 1386 1391 1394 1398 1402 1405 1408 1411 1413 1414 1416 1418 1419 1421 1423 1424 1425 1426 1428 1429 1430 1432 1433 1434 1436 1438 1439 1441 1442 1444 1445 1447 1448 1448 1448 1448 1450 1453 1456 1459 1461 1462 1462 1461 1461 1461 1460 1460 1460 1460 1460 1459 1459 1459 1458 1458 1458 1457 1457 1456 1455 1455 1454 1454 1453 1453 1453
1379 1383 1388 1393 1396 1399 1403 1407 1409 1412 1414 1416 1416 1416 1417 1419 1421 1423 1425 1426 1427 1429 1430 1432 1433 1434 1436 1438 1439 1440 1441 1443 1444 1445 1445 1446 1447 1449 1452 1456 1458 1459 1460 1459 1459 1459 1459 1459 1459 1458 1458 1458 1458 1457 1457 1457 1457 1456 1456 1455 1455 1454 1453 1453 1453 1453 1452 1452 1452
1380 1385 1390 1394 1398 1401 1405 1408 1410 1412 1414 1415 1415 1415 1416 1418 1420 1422 1424 1425 1427 1428 1430 1431 1433 1434 1436 1437 1438 1440 1441 1442 1443 1443 1444 1446 1448 1452 1455 1457 1458 1458 1458 1458 1458 1458 1457 1457 1457 1456 1456 1456 1455 1455 1455 1455 1455 1454 1454 1453 1453 1453 1452 1452 1452 1452 1451 1451 1451
1381 1385 1390 1395 1399 1403 1406 1408 1410 1412 1413 1413 1413 1413 1415 1417 1419 1422 1423 1425 1427 1428 1430 1431 1432 1433 1435 1437 1438 1439 1440 1440 1441 1442 1445 1448 1451 1454 1455 1456 1456 1456 1456 1456 1456 1456 1456 1455 1455 1454 1454 1454 1454 1453 1453 1453 1453 1453 1453 1452 1452 1451 1451 1451 1451 1451 1450 1450 1450
1381 1385 1390 1395 1399 1403 1406 1408 1409 1410 1411 1411 1411 1413 1414 1417 1419 1421 1423 1425 1426 1428 1429 1430 1432 1433 1435 1437 1438 1438 1438 1439 1441 1444 1448 1450 1453 1454 1454 1454 1454 1455 1455 1455 1454 1454 1454 1453 1453 1453 1453 1452 1452 1452 1452 1452 1452 1452 1452 1451 1451 1451 1450 1450 1450 1450 1449 1449 1449
1381 1385 1390 1394 1399 1403 1406 1407 1408 1408 1409 1409 1410 1412 1414 1416 1418 1421 1423 1424 1426 1427 1429 1430 1432 1434 1435 1436 1436 1437 1438 1441 1444 1447 1449 1451 1452 1452 1453 1453 1453 1453 1453 1453 1453 1452 1452 1452 1452 1451 1451 1451 1451 1451 1451 1451 1451 1451 1451 1451 1450 1450 1450 1449 1449 1449 1449 1449 1449
1382 1386 1390 1395 1399 1403 1405 1407 1407 1407 1407 1408 1409 1411 1413 1416 1418 1421 1423 1424 1425 1427 1428 1430 1432 1433 1434 1434 1436 1438 1441 1444 1446 1448 1449 1450 1450 1451 1451 1451 1452 1452 1452 1451 1451 1451 1450 1450 1450 1450 1450 1450 1450 1450 1451 1451 1451 1451 1450 1450 1450 1449 1449 1448 1448 1448 1448 1448 1448
1383 1387 1391 1396 1399 1402 1404 1406 1406 1406 1407 1407 1409 1411 1413 1416 1418 1420 1422 1424 1425 1427 1428 1430 1431 1432 1433 1435 1438 1441 1443 1445 1446 1447 1448 1448 1449 1449 1449 1450 1450 1450 1450 1450 1449 1449 1449 1449 1448 1448 1449 1449 1449 1450 1450 1450 1450 1450 1449 1449 1449 1448 1448 1448 1448 1448 1448 1448 1448
1383 1388 1392 1396 1399 1402 1404 1405 1406 1406 1407 1408 1409 1411 1413 1415 1418 1420 1422 1423 1425 1426 1427 1429 1431 1432 1434 1437 1440 1442 1444 1445 1445 1446 1447 1447 1448 1448 1448 1448 1448 1448 1448 1448 1448 1448 1448 1448 1448 1448 1448 1449 1449 1449 1449 1449 1449 1449 1448 1448 1448 1448 1447 1447 1447 1447 1447 1447 1447
1385 1389 1393 1396 1399 1402 1403 1405 1406 1407 1407 1408 1409 1411 1413 1416 1418 1420 1422 1423 1424 1425 1427 1429 1431 1434 1436 1439 1441 1442 1443 1444 1444 1445 1445 1446 1446 1446 1447 1447 1447 1447 1447 1447 1447 1447 1447 1447 1447 1448 1448 1448 1448 1448 1448 1448 1448 1448 1447 1447 1447 1447 1446 1446 1447 1447 1447 1447 1447
1386 1390 1393 1396 1399 1401 1403 1405 1406 1407 1408 1408 1410 1412 1413 1416 1418 1420 1421 1423 1424 1426 1428 1431 1433 1435 1438 1439 1440 1441 1442 1443 1443 1444 1444 1444 1445 1445 1445 1446 1446 1446 1446 1446 1446 1446 1447 1447 1447 1447 1448 1448 1448 1448 1447 1447 1447 1446 1446 1446 1446 1446 1446 1446 1446 1447 1447 1447 1447
1388 1391 1394 1397 1399 1401 1403 1405 1406 1407 1408 1409 1410 1412 1414 1416 1418 1420 1421 1423 1425 1427 1430 1432 1434 1436 1438 1439 1440 1441 1442 1442 1442 1443 1443 1443 1444 1444 1444 1445 1445 1445 1445 1445 1446 1446 1446 1447 1447 1447 1447 1447 1447 1446 1446 1446 1446 1445 1445 1445 1445 1445 1446 1446 1446 1447 1447 1447 1447
1390 1392 1395 1397 1400 1402 1404 1405 1406 1407 1408 1409 1411 1413 1414 1416 1418 1420 1422 1424 1427 1429 1431 1433 1435 1437 1438 1439 1439 1440 1441 1441 1441 1442 1442 1443 1443 1443 1443 1444 1444 1444 1445 1445 1445 1446 1446 1446 1446 1446 1446 1446 1446 1445 1445 1445 1445 1445 1445 1445 1445 1445 1446 1446 1446 1446 1446 1446 1446
1390 1393 1396 1398 1401 1403 1404 1405 1406 1408 1408 1410 1412 1413 1415 1417 1419 1421 1423 1426 1428 1430 1432 1434 1435 1437 1438 1438 1439 1439 1440 1440 1441 1441 1442 1442 1443 1443 1443 1443 1444 1444 1445 1445 1445 1445 1445 1445 1445 1445 1445 1445 1444 1444 1444 1444 1444 1444 1445 1445 1445 1445 1445 1445 1445 1445 1445 1445 1445
1391 1393 1396 1399 1401 1403 1404 1405 1407 1408 1409 1411 1412 1414 1416 1418 1420 1423 1425 1427 1428 1430 1432 1433 1435 1436 1437 1438 1438 1439 1439 1440 1440 1441 1441 1442 1442 1443 1443 1443 1444 1444 1445 1445 1444 1444 1444 1444 1444 1444 1444 1444 1443 1443 1444 1444 1444 1444 1444 1445 1445 1445 1445 1445 1445 1445 1445 1445 1445
1392 1394 1397 1399 1401 1403 1404 1406 1407 1409 1410 1412 1413 1415 1418 1419 1422 1423 1425 1427 1428 1430 1431 1433 1434 1436 1437 1438 1438 1439 1439 1440 1440 1440 1441 1441 1442 1443 1443 1443 1444 1444 1444 1444 1444 1443 1443 1443 1443 1443 1443 1443 1443 1443 1443 1444 1444 1444 1444 1444 1444 1445 1444 1444 1444 1444 1445 1445 1445
1393 1395 1397 1399 1401 1403 1405 1407 1408 1410 1412 1413 1415 1417 1418 1420 1422 1423 1425 1427 1428 1429 1431 1432 1434 1435 1436 1437 1438 1438 1439 1439 1440 1440 1441 1441 1442 1443 1443 1443 1444 1443 1443 1443 1443 1443 1443 1443 1443 1443 1443 1443 1443 1443 1443 1443 1443 1444 1444 1444 1444 1444 1444 1444 1444 1444 1445 1445 1445
1394 1396 1397 1399 1401 1403 1405 1407 1409 1411 1413 1415 1416 1418 1419 1420 1422 1423 1425 1427 1428 1429 1430 1432 1433 1435 1436 1437 1437 1438 1438 1439 1440 1440 1441 1442 1443 1443 1443 1443 1443 1443 1443 1442 1442 1442 1442 1442 1442 1442 1442 1443 1443 1443 1443 1443 1443 1443 1443 1443 1443 1443 1444 1444 1444 1444 1444 1444 1444
1395 1397 1398 1400 1402 1403 1406 1408 1410 1412 1414 1415 1417 1418 1419 1421 1422 1423 1425 1427 1428 1429 1430 1432 1433 1435 1436 1436 1437 1438 1438 1439 1440 1441 1442 1442 1443 1443 1443 1443 1443 1443 1442 1442 1442 1442 1442 1442 1442 1442 1442 1442 1443 1443 1443 1443 1443 1443 1443 1443 1443 1444 1444 1444 1444 1444 1444 1444 1444
1396 1398 1399 1401 1402 1404 1406 1408 1411 1413 1415 1416 1418 1418 1420 1421 1422 1424 1426 1427 1429 1430 1431 1432 1433 1434 1435 1436 1437 1438 1438 1440 1441 1441 1442 1442 1443 1443 1443 1443 1443 1442 1442 1442 1442 1442 1442 1442 1442 1442 1442 1442 1442 1442 1442 1442 1442 1443 1443 1443 1444 1444 1444 1444 1444 1444 1444 1444 1443
1396 1398 1399 1401 1403 1405 1407 1409 1412 1414 1416 1417 1418 1419 1420 1421 1423 1424 1426 1428 1429 1430 1432 1433 1433 1434 1436 1437 1438 1438 1439 1440 1441 1442 1442 1442 1443 1443 1443 1443 1442 1442 1442 1442 1442 1442 1442 1442 1442 1442 1442 1442 1442 1442 1442 1442 1443 1443 1443 1444 1444 1444 1444 1444 1444 1444 1443 1443 1443